Location: Nashville
(36.1660°N, 86.7840°W)
Time: 07:46:20
(UTC-05:00)

AO-109 - Pass Details

Date: 26 May 2022
Orbit: 477 x 502 km, 60.7° (Epoch: 27 June)

Event Time Altitude Azimuth Distance (km) Brightness Sun altitude
Rises 23:23:07 0° 336° (NNW) 2,599 ? -29.4°
Reaches altitude 10° 23:25:34 10° 350° (N) 1,714 ? -29.6°
Enters shadow 23:27:23 20° 13° (NNE) 1,203 ? -29.7°
